Caldwell, NJ

3:21 AM EDT on September 20, 2019 (GMT -0400)
Essex County

Weather History for KCDW - August, 2019

Change the Weather History Date:

Monday, August 19, 2019

  Actual Average Record
Temperature  
Mean Temperature 83 °F -  
Max Temperature 95 °F 82 °F 93 °F (1956)
Min Temperature 71 °F 58 °F 47 °F (1953)
Cooling Degree Days 18    
Growing Degree Days 33 (Base 50)    
Moisture  
Dew Point 70 °F    
Average Humidity 74    
Maximum Humidity 93    
Minimum Humidity 34    
Precipitation  
Precipitation 0.00 in - - ()
Sea Level Pressure  
Sea Level Pressure 29.99 in    
Wind  
Wind Speed 3 mph ()    
Max Wind Speed 10 mph    
Max Gust Speed -    
Visibility 10.0 miles    
Events Thunderstorm    
Averages and records for this station are not official NWS values.
T = Trace of Precipitation, MM = Missing Value Source: Averaged Metar Reports

Daily Weather History Graph

Daily Weather History Graph

Search for Another Location

Airport or City:

Astronomy

Aug. 19, 2019 Rise Set
Actual Time 6:10 AM EDT 7:49 PM EDT
Civil Twilight 5:41 AM EDT 8:19 PM EDT
Nautical Twilight 5:06 AM EDT 8:54 PM EDT
Astronomical Twilight 4:28 AM EDT 9:31 PM EDT
Moon 10:08 PM EDT (8/19) 9:51 AM EDT (8/19)
Length of Visible Light 14h 37m
Length of Day
13h 39m
Waning Gibbous, 85% of the Moon is Illuminated
Aug 19
Waning Gibbous
Aug 23
Last Quarter
Aug 30
New
Sep 5
First Quarter
Sep 14
Full

Hourly Weather History & Observations

Time (EDT) Temp. Heat Index Dew Point Humidity Pressure Visibility Wind Dir Wind Speed Gust Speed Precip Events Conditions
12:53 AM 71.1 °F - 68.0 °F 90% 30.00 in 10.0 mi WNW 5.8 mph - N/A   Clear
1:53 AM 71.1 °F - 69.1 °F 93% 29.98 in 10.0 mi Calm Calm - N/A   Clear
2:53 AM 71.1 °F - 69.1 °F 93% 29.98 in 10.0 mi Calm Calm - N/A   Mostly Cloudy
3:28 AM 71.1 °F - 68.0 °F 90% 29.98 in 10.0 mi Calm Calm - N/A   Mostly Cloudy
3:53 AM 71.1 °F - 69.1 °F 93% 30.00 in 10.0 mi Calm Calm - N/A   Overcast
4:53 AM 72.0 °F - 69.1 °F 91% 30.00 in 10.0 mi Calm Calm - N/A   Mostly Cloudy
5:02 AM 72.0 °F - 69.1 °F 91% 29.99 in 10.0 mi Calm Calm - N/A   Scattered Clouds
5:11 AM 72.0 °F - 69.1 °F 91% 29.99 in 10.0 mi Calm Calm - N/A   Mostly Cloudy
5:20 AM 72.0 °F - 69.1 °F 91% 29.99 in 10.0 mi Calm Calm - N/A   Scattered Clouds
5:53 AM 72.0 °F - 69.1 °F 91% 30.02 in 10.0 mi Calm Calm - N/A   Clear
6:53 AM 73.0 °F - 70.0 °F 90% 30.02 in 10.0 mi Calm Calm - N/A   Partly Cloudy
7:53 AM 75.0 °F - 71.1 °F 87% 30.02 in 10.0 mi Calm Calm - N/A   Scattered Clouds
8:25 AM 77.0 °F - 71.1 °F 82% 30.01 in 10.0 mi Variable 5.8 mph - N/A   Mostly Cloudy
8:34 AM 77.0 °F - 72.0 °F 84% 30.00 in 10.0 mi Variable 3.5 mph - N/A   Overcast
8:53 AM 77.0 °F - 72.0 °F 84% 30.01 in 10.0 mi West 6.9 mph - N/A   Overcast
9:34 AM 79.0 °F - 73.0 °F 82% 30.00 in 10.0 mi South 8.1 mph - N/A   Mostly Cloudy
9:53 AM 80.1 °F 84.5 °F 73.9 °F 81% 30.01 in 10.0 mi Variable 4.6 mph - N/A   Mostly Cloudy
10:10 AM 81.0 °F 86.2 °F 73.9 °F 79% 29.99 in 10.0 mi Variable 3.5 mph - N/A   Scattered Clouds
10:53 AM 84.0 °F 91.2 °F 73.9 °F 72% 30.00 in 10.0 mi SW 4.6 mph - N/A   Clear
11:53 AM 88.0 °F 96.5 °F 73.9 °F 63% 29.99 in 10.0 mi South 5.8 mph - N/A   Clear
12:53 PM 90.0 °F 97.9 °F 73.0 °F 57% 29.99 in 10.0 mi Variable 5.8 mph - N/A   Clear
1:53 PM 91.0 °F 98.2 °F 72.0 °F 53% 29.98 in 10.0 mi Variable 3.5 mph - N/A   Partly Cloudy
2:53 PM 93.0 °F 99.0 °F 70.0 °F 47% 29.96 in 10.0 mi WNW 9.2 mph - N/A   Mostly Cloudy
3:34 PM 95.0 °F 96.0 °F 63.0 °F 34% 29.94 in 10.0 mi NW 9.2 mph - N/A Thunderstorm Partly Cloudy
3:53 PM 93.9 °F 95.6 °F 64.0 °F 37% 29.95 in 10.0 mi NW 6.9 mph - N/A Thunderstorm Scattered Clouds
4:09 PM 88.0 °F 90.7 °F 66.9 °F 49% 29.94 in 10.0 mi NNW 9.2 mph - N/A   Mostly Cloudy
4:53 PM 90.0 °F 95.4 °F 70.0 °F 52% 29.93 in 10.0 mi WNW 6.9 mph - N/A   Clear
5:53 PM 91.0 °F 95.2 °F 68.0 °F 47% 29.96 in 10.0 mi NW 3.5 mph - N/A   Clear
6:53 PM 86.0 °F 91.5 °F 71.1 °F 61% 29.98 in 10.0 mi South 10.4 mph - N/A   Mostly Cloudy
7:53 PM 84.0 °F 90.2 °F 73.0 °F 69% 29.99 in 10.0 mi South 4.6 mph - N/A   Clear
8:53 PM 82.0 °F 86.7 °F 72.0 °F 71% 30.00 in 10.0 mi Variable 3.5 mph - N/A   Clear
9:53 PM 81.0 °F 84.9 °F 71.1 °F 72% 30.01 in 10.0 mi Calm Calm - N/A   Clear
10:53 PM 79.0 °F - 71.1 °F 77% 30.03 in 10.0 mi Calm Calm - N/A   Clear
11:53 PM 75.9 °F - 71.1 °F 85% 30.03 in 10.0 mi Calm Calm - N/A   Clear